Location: Daytona Beach
(29.2106°N, 81.0231°W)
Time: 09:21:57
(UTC-04:00)

XW-2D - Visible Passes

Search period start: 24 September 2021 00:00
Search period end: 04 October 2021 00:00
Orbit: 505 x 523 km, 97.5° (Epoch: 24 September)

Date Brightness Start Highest point End Pass type
(mag) Time Alt. Az. Time Alt. Az. Time Alt. Az.
24 Sep ? 06:18:01 10° ENE 06:19:21 12° E 06:20:40 10° ESE visible
25 Sep ? 19:43:42 10° SW 19:45:32 13° W 19:47:24 10° WNW visible
28 Sep ? 06:48:35 10° NNE 06:51:57 32° E 06:55:17 10° SSE visible
29 Sep ? 06:33:45 10° NE 06:36:31 20° E 06:39:16 10° SE visible
30 Sep ? 06:19:31 10° ENE 06:21:03 12° E 06:22:35 10° ESE visible
01 Oct ? 19:45:36 10° WSW 19:47:15 12° W 19:48:54 10° WNW visible
02 Oct ? 19:28:57 10° SW 19:31:47 20° W 19:34:38 10° NW visible
